Airfield :
LOGIN :

Register | Disclaimer

   EN    FR    IT 

 










Legend :    VFR   Marginal VFR   IFR   Intensive IFR   Very Intensive IFR
Visi :
Ceiling :
>= 8 km
>= 3000ft
5 to 8 km
1000 to 3000 ft
1500m to 5 km
500 to 1000 ft
800 to 1500m
200 to 500 ft
< 800m
< 200 ft
Symbols :   Thunderstorms  Fog  Heavy snow  Heavy precipitations  Wind > 20 kt
SIGMETs :     Misc.  Thunderstorms  Icing  Turbulence  Mountain Waves  Volcanic Ashes







- Airport Elevation : 1339 ft


ETHN - Niederstetten

CURRENT METAR :
  • 172020Z 27016KT 9999 BKN008 BKN015 01/M00 Q1008 GRN

EXPIRED METARs :
  • 171920Z 27017KT 9999 FEW006 SCT012 02/00 Q1007 BLU+
  • 171848Z 27016KT 8000 -SHRASN SCT006 BKN012TCU BKN028 02/00 Q1007 GRN
  • 171820Z 28018KT 8000 -SHRASN FEW006 BKN010TCU 02/00 Q1007 RESHRA GRN

TAF AMD TAF ETHN
Valid from the 17 at 15:00 until the 18 at 00:00 UTC


171541Z 1715/1724 25020G33KT 9999 NSW SCT020 BKN040
TEMPO 1715/1718 25022G35KT 4000 -SHRA BKN012TCU
BECMG 1716/1718 25025G35KT 6000 -RASN BKN008
TEMPO 1718/1724 25025G35KT 4000 RASN BKN006 CANCEL 1600
No reported NOTAMs for that airfield.



MET'MAP, your aeronautical weather chart ! - Copyright ORBIFLY December 2007 - Disclaimer

ORBIFLY MET'MAP TEAM :

Programming & Development : Alexandra Zaïnal
Concept & Development : Baudouin d'Aumeries
Co-Development & Prog : Marc-Olivier Méhu
Technical & hardware support : Manuel Goepfert

Contact : metmap@orbifly.com




SOURCES & CREDITS :

   NOAA